User: anonymous   Login
Location: Newark
(7.0858°N, 171.3717°E)
Time: 22:33:45
(UTC+00:00)
Language:

STARLINK-3042 - Orbit

View from above orbital plane
View from above orbital plane
View from above satellite
View from above satellite

Ground track
Ground track

The orbit data is extracted from the following two-line orbital elements,

1 49142U 21082N   21337.58334491  .00086325  00000-0  72120-3 0  9995
2 49142  70.0000 260.7155 0003748 278.5382 308.5250 15.69622693  3681
Epoch (UTC): 03 December 2021 14:00:01
Eccentricity: 0.0003748
inclination: 70.0000°
perigee height: 357 km
apogee height: 362 km
right ascension of ascending node: 260.7155°
argument of perigee: 278.5382°
revolutions per day: 15.69622693
mean anomaly at epoch: 308.5250°
orbit number at epoch: 368

The dashed part of the orbit path shows where the satellite is in the earth's shadow,  

DLR